TOURFACTS.DK  
Stats and Facts from Tour de France.

Tour de France 2019 starts in 348 days
  Riders   Stages   Teams   Summits   Yearly  


 
Search by year

After 2018 - Stage 14:
 15000 starters.
  5163 different riders.
  639 teams.
  2246 stages.
  456 restdays.
  441957.60 km.
  5678 abandonnees.


Top 3
GC
Christopher Froome86:20:55
Rigoberto Urán86:21:49
Romain Bardet86:23:15
Climb
Warren Barguil169 pt.
Primoz Roglic80 pt.
Thomas De Gendt64 pt.
Sprint
Michael Matthews359 pt.
André Greipel234 pt.
Edvald Boasson Hagen220 pt.
Youth
Simon Yates86:27:09
Louis Meintjes86:29:15
Emanuel Buchmann86:54:16
Facts from Tour de France 1933
  |   Stages.  |   Stage winners.  |   Days in yellow  |   Average speed.  |   Route.  |   Teams.  |   All riders.  |   Rookies.  |  

  |   Withdrawls.  |   GC.  |   Polka  |   Green  |   White  |   Summits. (In tour)  |   Miscellaneous.  |  

Stage 2 on June 28th. 1933
         Owning:    Maurice Archambaud    
Pick a stage:  1 2 3 4 5 6 7 8 9 10 11 12 13 14 15 16 17 18 19 20 21 22 23
From: Lille    To: CharlevilleDist:192.00 km.

Average speed for all riders in stage:  33,701 km./hr.
    Place:Name:Team:Time:Km/h:
ITALearco GuerraITAItaly05:33:52  +  00:00:00=34,505 
BELJean AertsBELBelgium05:33:52  +  00:00:00=34,505 
BELGeorges RonsseBELBelgium05:33:52  +  00:00:00=34,505 
4 BELGaston RebryBELBelgium05:33:52  +  00:00:00=34,505 
5 FRARené Le GrevesFRAFrance05:33:52  +  00:00:00=34,505 
6 FRAMaurice ArchambaudFRAFrance05:33:52  +  00:00:00=34,505 
7 BELJean WautersBELBelgium05:33:52  +  00:00:00=34,505 
8 BELLouis HardiquestTouristes Routiers05:33:52  +  00:00:00=34,505 
9 GERHermann BuseDEUGermany-Austria05:33:52  +  00:00:00=34,505 
10 BELJulien VervaeckeTouristes Routiers05:33:52  +  00:00:00=34,505 
11 FRAAntonin MagneFRAFrance05:33:52  +  00:00:00=34,505 
12 BELJoseph MoerenhoutBELBelgium05:33:52  +  00:00:00=34,505 
13 BELGeorges LemaireBELBelgium05:33:52  +  00:00:00=34,505 
14 AUTMax BullaDEUGermany-Austria05:36:31  +  00:02:39=34,233 
15 FRAPierre-Marie CloarecTouristes Routiers05:36:31  +  00:02:39=34,233 
16 ITADomenico PiemontesiITAItaly05:36:31  +  00:02:39=34,233 
17 ITAGiuseppe MartanoTouristes Routiers05:36:31  +  00:02:39=34,233 
18 ITAFrancesco CamussoITAItaly05:36:31  +  00:02:39=34,233 
19 GERKurt StöpelDEUGermany-Austria05:36:31  +  00:02:39=34,233 
20 FRACharles PelissierFRAFrance05:36:31  +  00:02:39=34,233 
21 FRARoger LapebieFRAFrance05:37:25  +  00:03:33=34,142 
22 ESPVicente TruebaTouristes Routiers05:37:25  +  00:03:33=34,142 
23 GERLudwig GeyerDEUGermany-Austria05:37:25  +  00:03:33=34,142 
24 FRAEmile IgnatTouristes Routiers05:37:25  +  00:03:33=34,142 
25 FRAAuguste MoncieroTouristes Routiers05:37:25  +  00:03:33=34,142 
26 FRAGeorges SpeicherFRAFrance05:37:25  +  00:03:33=34,142 
27 FRALéon LouyetTouristes Routiers05:37:25  +  00:03:33=34,142 
28 FRALéon LevelTouristes Routiers05:37:25  +  00:03:33=34,142 
29 ITAAntonio FolcoTouristes Routiers05:37:25  +  00:03:33=34,142 
30 GEROskar ThierbachDEUGermany-Austria05:37:25  +  00:03:33=34,142 
31 SUIAlbert BüchiCHESwitzerland05:37:25  +  00:03:33=34,142 
32 SUIAlfred BüchiCHESwitzerland05:37:25  +  00:03:33=34,142 
33 BELGustaaf DeloorBELBelgium05:37:25  +  00:03:33=34,142 
34 BELEmile DecroixTouristes Routiers05:37:25  +  00:03:33=34,142 
35 FRAGaspard RinaldiTouristes Routiers05:37:25  +  00:03:33=34,142 
36 FRALéon Le CalvezFRAFrance05:37:25  +  00:03:33=34,142 
37 FRADécimo BettiniTouristes Routiers05:37:25  +  00:03:33=34,142 
38 FRAAndré LeducqFRAFrance05:37:25  +  00:03:33=34,142 
39 BELAlfons SchepersBELBelgium05:37:25  +  00:03:33=34,142 
40 FRAJean DriancourtTouristes Routiers05:37:25  +  00:03:33=34,142 
41 FRAErnest NeuhardTouristes Routiers05:37:25  +  00:03:33=34,142 
42 FRAFernand CornezTouristes Routiers05:37:25  +  00:03:33=34,142 
43 ITAFabio BattesiniITAItaly05:37:25  +  00:03:33=34,142 
44 FRARobert BrugéreTouristes Routiers05:37:25  +  00:03:33=34,142 
45 ITALuigi GiacobbeITAItaly05:37:25  +  00:03:33=34,142 
46 ITAAllegro GrandiITAItaly05:37:25  +  00:03:33=34,142 
47 FRAAndré GaillotTouristes Routiers05:43:57  +  00:10:05=33,493 
48 BELKamiel De GraeveTouristes Routiers05:44:48  +  00:10:56=33,411 
49 FRAEugene Le GoffTouristes Routiers05:45:11  +  00:11:19=33,374 
50 BELLeopold RoosemontTouristes Routiers05:45:11  +  00:11:19=33,374 
51 ITAGiovanni FirpoTouristes Routiers05:49:18  +  00:15:26=32,980 
52 FRAFrancois HaasTouristes Routiers05:49:18  +  00:15:26=32,980 
53 BELAntoine DignefTouristes Routiers05:49:18  +  00:15:26=32,980 
54 FRAAdrien ButtafocchiTouristes Routiers05:49:18  +  00:15:26=32,980 
55 GERKarl AltenburgerDEUGermany-Austria05:50:57  +  00:17:05=32,825 
56 FRAPierre PastorelliTouristes Routiers05:50:57  +  00:17:05=32,825 
57 SUIWalter BlattmannCHESwitzerland05:50:57  +  00:17:05=32,825 
58 SUIRoger PipozCHESwitzerland05:50:57  +  00:17:05=32,825 
59 ITALuigi LuisoniCHESwitzerland05:50:57  +  00:17:05=32,825 
60 ITARenato ScorticatiTouristes Routiers05:50:57  +  00:17:05=32,825 
61 FRARené BernardTouristes Routiers05:52:01  +  00:18:09=32,726 
62 GERWilly KutschbachDEUGermany-Austria05:52:01  +  00:18:09=32,726 
63 SUIGeorges AntenenCHESwitzerland05:52:01  +  00:18:09=32,726 
64 FRALouis PeglionTouristes Routiers06:03:13  +  00:29:21=31,717 
65 FRAFernand FayolleTouristes Routiers06:03:13  +  00:29:21=31,717 
66 SUIAlfred BulaCHESwitzerland06:03:13  +  00:29:21=31,717 
67 AUTKarl ThallingerTouristes Routiers06:03:13  +  00:29:21=31,717 
68 ITARafaële Di PacoITAItaly06:03:13  +  00:29:21=31,717 
69 ITAVasco BergamaschiITAItaly06:03:13  +  00:29:21=31,717 

Withdrawls: 3
 
Rider
Team
Reason
22  SUIAugust ErneCHESwitzerlandDid not finish
123  FRABenoit FaureTouristes RoutiersDid not finish
125  FRARoger BisseronTouristes RoutiersDid not finish

Todays birthdays.

1877  Antoine Perrichon
1878  Auguste Berthault
1911  Théo Herckenrath
1924  Carlo Lafranchi
1931  Armand Di Caro
1937  Jean-Claude Lebaube
1951  Giovanni Battaglin
1961  Pascal Jules
1962  Jean-Claude Leclercq
1976  Janek Tombak
1978  Francisco Pérez
1983  Dries Devenyns




Visits: